Zurück zum Katalog

STARLINK-11504

AktivKommunikationVLEO
NORAD 62274·PAYLOAD·🇺🇸 United States

Gestartet Dec 8, 2024 von Cape Canaveral Space Force Station

Loading…

Nächste Überflüge (nächste 24 Stunden)

TLE

AktuellSource: CelesTrak SupGP

Epoche: Sep 14, 2026, 21:34 UTC

1 62274C 24237H   26257.89909722  .00013007  00000+0  10097-3 0  2574
2 62274  43.0007 356.3039 0001580 272.0897 242.2173 15.70845195    12

Verfolge STARLINK-11504 in Echtzeit mit AllMySat

Download on the App Store